Location: *
(38.4303°S, 157.0822°W)
Time: 15:16:21
(UTC+00:00)

Cosmos 1544 Rocket - Pass Details

Date: 21 May 2024
Orbit: 602 x 626 km, 82.5° (Epoch: 23 June)

Event Time Altitude Azimuth Distance (km) Brightness Sun altitude
Rises 16:33:57 0° 340° (NNW) 2,901 7.0 -10.8°
Reaches altitude 10° 16:36:15 10° 333° (NNW) 2,001 6.1 -10.4°
Maximum altitude 16:40:31 46° 260° (W) 852 3.8 -9.6°
Drops below altitude 10° 16:44:50 10° 185° (S) 2,018 6.0 -8.8°
Sets 16:47:10 0° 179° (S) 2,928 6.8 -8.4°
